Find Beidou DW 56

NORAD ID: 56564 Int'l Des: 2023-066 Owner: CNSA Country: CN Constellation: BeiDou operational
HEOCIRCULARGSO

Live-Position

3D-Globus wird geladen...

Über Beidou DW 56

Beschreibung wird geladen...

Nächste Überflüge

Passes for default location (London). Set your location on the main map for personalized predictions.

Höhenverlauf

Loading altitude history...

Zweizeiliger Elementsatz

1 56564U 23066A 26121.94064551 -.00000276 00000-0 00000-0 0 9995
2 56564 0.5494 320.9526 0003228 157.6173 220.0132 1.00271015 10932
Epoch: 1. Mai 2026 • Age: 9 hours

Aktueller Status

Höhe 35773.0 km
Geschwindigkeit 3.08 km/s
Subsatellitenpunkt 0.28°N, 140.07°E
Startdatum 17. Mai 2023
Alter 2.9 years
Typ navigation

Technische Details

Klassifizierung Payload
Masse 3060.00 kg
Trockenmasse 1700.00 kg
Gesamtmasse 3060.00 kg
Länge 3.00 m
Durchmesser 1.70 m
Spannweite 18.00 m
Form Box + 2 Pan
Hersteller CAST
Bus-Typ DFH-3B
Phasenstatus In Orbit
Besitzer/Staat CNSA/CN

Most Searched